Kekaha, HI

11:23 AM HST on February 25, 2017 (GMT -1000)
Barking Sands PMRF

Weather History for PHBK - December, 2012

Change the Weather History Date:

Friday, December 21, 2012

  Actual Average Record
Temperature  
Mean Temperature 72 °F -  
Max Temperature 80 °F 81 °F 85 °F (1976)
Min Temperature 64 °F 62 °F 59 °F (1977)
Cooling Degree Days 7    
Growing Degree Days 22 (Base 50)    
Moisture  
Dew Point 65 °F    
Average Humidity 80    
Maximum Humidity 100    
Minimum Humidity 60    
Precipitation  
Precipitation 0.01 in - - ()
Sea Level Pressure  
Sea Level Pressure 30.03 in    
Wind  
Wind Speed 4 mph (ENE)    
Max Wind Speed 12 mph    
Max Gust Speed -    
Visibility 10 miles    
Events Rain    
Averages and records for this station are not official NWS values.
T = Trace of Precipitation, MM = Missing Value Source: NWS Daily Summary

Daily Weather History Graph

Daily Weather History Graph

Search for Another Location

Airport or City:

Trip Planner

Search our weather history database for the weather conditions in past years. The results will help you decide how hot, cold, wet, or windy it might be!

Date:

Astronomy

Dec. 21, 2012 Rise Set
Actual Time 7:14 AM HST 6:01 PM HST
Civil Twilight 6:49 AM HST 6:25 PM HST
Nautical Twilight 6:21 AM HST 6:53 PM HST
Astronomical Twilight 5:54 AM HST 7:21 PM HST
Moon 1:29 PM HST (12/21) 1:39 AM HST (12/21)
Length of Visible Light 11h 36m
Length of Day
10h 47m
Waxing Gibbous, 66% of the Moon is Illuminated
Dec 21
Waxing Gibbous
Dec 28
Full
Jan 4
Last Quarter
Jan 11
New
Jan 18
First Quarter

Hourly Weather History & Observations

Time (HST) Temp. Heat Index Dew Point Humidity Pressure Visibility Wind Dir Wind Speed Gust Speed Precip Events Conditions
12:56 AM 70.0 °F - 57.9 °F 65% 30.05 in 10.0 mi SE 3.5 mph - N/A   Clear
1:56 AM 66.0 °F - 64.9 °F 96% 30.04 in 10.0 mi ESE 3.5 mph - N/A   Clear
2:56 AM 66.0 °F - 63.0 °F 90% 30.04 in 10.0 mi East 3.5 mph - N/A   Clear
3:56 AM 66.0 °F - 60.1 °F 81% 30.03 in 10.0 mi Calm Calm - N/A   Clear
4:56 AM 64.0 °F - 59.0 °F 84% 30.03 in 10.0 mi East 3.5 mph - N/A   Clear
5:56 AM 64.0 °F - 55.9 °F 75% 30.04 in 10.0 mi ENE 4.6 mph - N/A   Clear
6:56 AM 64.0 °F - 61.0 °F 90% 30.03 in 10.0 mi ENE 3.5 mph - N/A   Clear
7:56 AM 64.9 °F - 64.9 °F 100% 30.04 in 10.0 mi ESE 4.6 mph - N/A   Clear
8:56 AM 73.9 °F - 66.9 °F 79% 30.06 in 10.0 mi Calm Calm - N/A   Clear
9:56 AM 75.9 °F - 64.9 °F 69% 30.08 in 10.0 mi Calm Calm - N/A   Partly Cloudy
10:56 AM 78.1 °F - 64.9 °F 64% 30.06 in 10.0 mi NW 4.6 mph - N/A   Partly Cloudy
11:56 AM 80.1 °F 81.9 °F 64.9 °F 60% 30.04 in 10.0 mi NNW 11.5 mph - N/A   Mostly Cloudy
12:56 PM 75.9 °F - 69.1 °F 79% 30.01 in 10.0 mi West 4.6 mph - 0.01 in   Mostly Cloudy
1:56 PM 78.1 °F - 69.1 °F 74% 29.99 in 10.0 mi NNW 9.2 mph - 0.00 in Rain Light Rain
2:56 PM 78.1 °F - 69.1 °F 74% 29.99 in 10.0 mi North 10.4 mph - 0.00 in   Mostly Cloudy
3:56 PM 79.0 °F - 66.9 °F 66% 29.99 in 10.0 mi NW 8.1 mph - N/A   Mostly Cloudy
4:56 PM 79.0 °F - 72.0 °F 79% 29.99 in 10.0 mi West 9.2 mph - N/A   Partly Cloudy
5:56 PM 78.1 °F - 69.1 °F 74% 30.00 in 10.0 mi NW 8.1 mph - N/A   Mostly Cloudy
6:56 PM 73.0 °F - 69.1 °F 87% 30.02 in 10.0 mi SSE 6.9 mph - N/A   Scattered Clouds
7:56 PM 73.0 °F - 66.9 °F 81% 30.04 in 10.0 mi ESE 5.8 mph - N/A   Overcast
8:56 PM 72.0 °F - 69.1 °F 91% 30.06 in 10.0 mi East 3.5 mph - N/A   Overcast
9:56 PM 71.1 °F - 68.0 °F 90% 30.06 in 10.0 mi SE 3.5 mph - N/A   Mostly Cloudy
10:56 PM 71.1 °F - 66.0 °F 84% 30.07 in 10.0 mi Calm Calm - N/A   Overcast
11:56 PM 71.1 °F - 69.1 °F 93% 30.06 in 10.0 mi ENE 4.6 mph - N/A   Scattered Clouds